Content
SEND FEEDBACK

Daily
Averages
Monthly
Summary
Canada

ANCIENNE LORETTE, QUEBEC


Home > North America > Canada > Quebec
Elevation: 230 feet     Latitude: 46 48N     Longitude: 071 22W

WEATHER
 
SELECT A DAY
Number of Records: 198,095;   Date Range: 6/30/96 - 12/19/14
 
SHARE

PRINT THIS DATA

[ ← Previous Day ]
WEATHER ALMANAC - APRIL 10, 2013
[ Next Day → ]
[ °C ]   °F
Weather ElementAverageHighLow
Temperature40.4 °F48 °F (2:00 pm)35 °F (2:00 am)
Dewpoint27.2 °F36 °F (8:00 am) (7:00 pm)
Humidity64.1 %100 % (3:00 am)26 % (5:00 pm)
Barometer28.11 in29.99 in (10:00 am) (7:00 pm)
Wind Speed6.8 mph15 mph (3:00 pm)
Wind Gust19.6 mph (4:00 pm)
Weather ElementAverage
Visibility17.7 mi
Wind DirectionWNW (281.6 °)

Weather ElementTotal
Precipitation---
Heating Degree Days23.5 (Base 65)
Averaged from 33 records on April 10, 2013
WEATHER CONDITIONS BREAKOUT
WIND DIRECTION BREAKOUT
WEATHER BY HOUR - APRIL 10, 2013
[ °C ]   °F
Local TimeTemperatureDewpointHumidityBarometerVisibilityWind DirectionWind SpeedGust SpeedPrecipitationEventsConditions
1:00 AM35.6 °F33.8 °F93 %29.94 in4.0 miCalmOvercast
2:00 AM35.0 °F35.0 °F97 %29.92 inWest (260°)4.6 mph
2:00 AM35.6 °F33.8 °F93 %29.92 in4.0 miSW (230°)6.9 mphOvercast
3:00 AM35.6 °F35.6 °F100 %29.92 in3.0 miSW (230°)9.2 mphOvercast
3:27 AM35.6 °F0.0 °F1.5 miWSW (240°)10.4 mphOvercast
4:00 AM35.6 °F35.6 °F100 %29.92 in1.5 miWSW (250°)11.5 mphOvercast
4:35 AM35.6 °F0.0 °F0.0 mi8.1 (2013°)Overcast240
5:00 AM35.6 °F35.6 °F100 %29.94 in0.8 miWSW (240°)3.5 mphOvercast
5:00 AM35.0 °F35.0 °F98 %29.93 inWSW (240°)1.2 mph
6:00 AM35.6 °F33.8 °F93 %29.95 in3.0 miCalmMostly Cloudy
7:00 AM35.6 °F33.8 °F93 %29.96 in15.0 miSW (230°)2.3 mphFogMostly Cloudy
8:00 AM38.0 °F36.0 °F90 %29.97 inWSW (250°)3.5 mph
8:00 AM39.2 °F35.6 °F87 %29.98 in20.0 miSW (230°)6.9 mphPartly Cloudy
9:00 AM42.8 °F32.0 °F66 %29.98 in30.0 miNW (310°)9.2 mphPartly Cloudy
10:00 AM42.8 °F28.4 °F57 %29.99 in30.0 miNorth (10°)6.9 mphMostly Cloudy
11:00 AM42.8 °F28.4 °F57 %29.99 in30.0 miWNW (290°)2.3 mphMostly Cloudy
11:00 AM44.0 °F29.0 °F43 %29.96 inWNW (300°)5.8 mph
12:00 PM44.6 °F30.2 °F57 %29.99 in30.0 miWest (260°)9.2 mphMostly Cloudy
1:00 PM44.6 °F28.4 °F53 %29.98 in30.0 miWNW (300°)11.5 mphMostly Cloudy
2:00 PM48.0 °F30.0 °F36 %29.95 inWNW (300°)8.1 mph
2:00 PM46.4 °F28.4 °F50 %29.97 in30.0 miWNW (300°)10.4 mphMostly Cloudy
3:00 PM46.4 °F26.6 °F46 %29.98 in30.0 miNW (310°)15.0 mphMostly Cloudy
4:00 PM46.4 °F28.4 °F50 %29.95 in30.0 miWest (270°)11.5 mph19.6 mphMostly Cloudy
5:00 PM46.4 °F23.0 °F40 %29.94 in30.0 miWest (260°)8.1 mphScattered Clouds
5:00 PM47.0 °F23.0 °F26 %29.92 inWNW (290°)9.2 mph
6:00 PM46.4 °F24.8 °F43 %29.93 in30.0 miWSW (240°)5.8 mphScattered Clouds
7:00 PM44.6 °F24.8 °F46 %29.91 in30.0 miWest (270°)4.6 mphScattered Clouds
8:00 PM38.0 °F26.0 °F50 %29.93 inWest (270°)3.5 mph
8:00 PM41.0 °F23.0 °F49 %29.94 in15.0 miWSW (240°)4.6 mphPartly Cloudy
9:00 PM41.0 °F21.2 °F45 %29.95 in15.0 miNNW (340°)6.9 mphPartly Cloudy
10:00 PM39.2 °F19.4 °F45 %29.97 in15.0 miWNW (300°)5.8 mphPartly Cloudy
11:00 PM36.0 °F20.0 °F40 %29.96 inNorth (10°)8.1 mph
11:00 PM37.4 °F17.6 °F45 %29.97 in15.0 miNorth (10°)11.5 mph18.4 mphPartly Cloudy
Hourly data recorded from CYQB, located miles away from Ancienne Lorette, Quebec







STORIES FROM OUR PARTNERS